Weather in Novoilyinka

Russia / Tomsk District     56°59′02″N   84°05′16″E
temp.,
°C
wind,
m/s
gust,
m/s
humid.,
%
clouds,
%
prec.,
mm/h
press.,
hPa
HPBL,
m
25 july, sun
sun2501:00+18nne117696 0.0 100611
04:00+18n007431 0.0 100611
07:00+19n117632 0.0 100731
10:00+24ese115864 0.0 1006351
13:00+27ese1249100 0.0 1006890
16:00+28e2253100 0.0 10051240
19:00+26se246890 0.0 1004469
22:00+22se2286100 0.6 100432
26 july, mon
mon2601:00+19sse229461 0.6 100240
04:00+18sse2497100 0.0 100183
07:00+19sse24945 0.0 1001135
10:00+24s347643 0.1 1000596
13:00+26sw3572100 3.7 999755
16:00+27sse3573100 4.0 998569
19:00+22se5889100 8.2 997190
22:00+19nne2498100 13.3 998124
27 july, tue
tue2701:00+17nw4898100 16.6 999474
04:00+13wnw51098100 0.3 1000566
07:00+11wnw51097100 1.6 1003678
10:00+12wnw5894100 0.1 1005841
13:00+16nw5769100 0.1 10061247
16:00+21nw474223 0.0 10062338
19:00+20nnw245498 0.0 10061137
22:00+15wnw3562100 0.0 1008168
28 july, wed
wed2801:00+14nnw3666100 0.0 1009163
04:00+13nw1165100 0.0 100920
07:00+14wnw127181 0.0 101070
10:00+15sw2265100 0.0 1011357
13:00+18wnw225477 0.1 10101015
16:00+20se114776 0.2 10101815
19:00+17s236880 0.3 1010253
22:00+14sw2273100 0.1 101014
29 july, thu
thu2901:00+14ssw227035 0.1 101036
04:00+11s2375100 0.0 101059
07:00+13s3773100 0.0 1011202
10:00+16ssw476477 0.0 1010463
13:00+20sw465377 0.0 10101331
16:00+20sw46573 0.0 1011965
19:00+18wsw368781 1.3 1010413
22:00+13wsw22935 2.0 101123